When you browse on this site, cookies collect data to enhance your experience and personalize the content and advertising you see.
Visit our Privacy Policy to learn more. By continuing to use the site, you agree to this use of cookies and data.
  • en France
  • Liste des pays
  • À 7 jours
  • Température de l'eau
  • Carte satellitaire
  • Carte météo
  • Widgets météo
  • user-avatar
    Se connecter

    Météo par heure à Bajdabo

    Ce jour, 19 Juin, Mercredi

    Heure Température Précipitation Vent Pression Humidité
    00:00 +23°C° 0 mm 6 m/s 723 mmHg 83%
    01:00 +23°C° 0 mm 5 m/s 723 mmHg 86%
    02:00 +22°C° 0 mm 5 m/s 723 mmHg 88%
    03:00 +22°C° 0 mm 5 m/s 723 mmHg 91%
    04:00 +22°C° 0 mm 5 m/s 723 mmHg 91%
    05:00 +22°C° 0 mm 5 m/s 723 mmHg 91%
    06:00 +22°C° 0 mm 5 m/s 723 mmHg 91%
    07:00 +23°C° 0 mm 6 m/s 724 mmHg 86%
    08:00 +24°C° 0 mm 6 m/s 724 mmHg 81%
    09:00 +26°C° 0 mm 7 m/s 724 mmHg 76%
    10:00 +27°C° 0 mm 7 m/s 724 mmHg 71%
    11:00 +28°C° 0 mm 7 m/s 724 mmHg 65%
    12:00 +30°C° 0 mm 7 m/s 723 mmHg 60%
    13:00 +30°C° 0 mm 7 m/s 723 mmHg 59%
    14:00 +30°C° 0 mm 7 m/s 722 mmHg 57%
    15:00 +32°C° 0 mm 7 m/s 721 mmHg 56%
    16:00 +30°C° 0.1 mm 7 m/s 721 mmHg 60%
    17:00 +29°C° 0.1 mm 6 m/s 721 mmHg 64%
    18:00 +28°C° 0.1 mm 6 m/s 721 mmHg 68%
    19:00 +27°C° 0 mm 6 m/s 722 mmHg 69%
    20:00 +26°C° 0 mm 6 m/s 722 mmHg 71%
    21:00 +26°C° 0 mm 5 m/s 723 mmHg 73%
    22:00 +25°C° 0 mm 5 m/s 723 mmHg 77%
    23:00 +23°C° 0 mm 5 m/s 723 mmHg 82%

    Demain, 20 Juin, Jeudi

    Heure Température Précipitation Vent Pression Humidité
    00:00 +23°C° 0 mm 5 m/s 723 mmHg 87%
    01:00 +23°C° 0 mm 5 m/s 723 mmHg 87%
    02:00 +22°C° 0 mm 6 m/s 722 mmHg 88%
    03:00 +22°C° 0 mm 6 m/s 722 mmHg 88%
    04:00 +22°C° 0 mm 5 m/s 722 mmHg 89%
    05:00 +22°C° 0 mm 5 m/s 723 mmHg 90%
    06:00 +22°C° 0 mm 5 m/s 723 mmHg 90%
    07:00 +23°C° 0 mm 6 m/s 723 mmHg 83%
    08:00 +24°C° 0 mm 7 m/s 724 mmHg 76%
    09:00 +27°C° 0 mm 8 m/s 724 mmHg 70%
    10:00 +28°C° 0 mm 8 m/s 724 mmHg 67%
    11:00 +28°C° 0 mm 8 m/s 723 mmHg 64%
    12:00 +29°C° 0 mm 8 m/s 723 mmHg 61%
    13:00 +29°C° 0 mm 7 m/s 722 mmHg 61%
    14:00 +29°C° 0 mm 7 m/s 722 mmHg 60%
    15:00 +29°C° 0 mm 7 m/s 721 mmHg 60%
    16:00 +29°C° 0.1 mm 6 m/s 721 mmHg 62%
    17:00 +29°C° 0.1 mm 6 m/s 721 mmHg 64%
    18:00 +28°C° 0.1 mm 6 m/s 721 mmHg 66%
    19:00 +27°C° 0.1 mm 6 m/s 721 mmHg 71%
    20:00 +26°C° 0.1 mm 6 m/s 722 mmHg 75%
    21:00 +24°C° 0.1 mm 6 m/s 723 mmHg 80%
    22:00 +24°C° 0 mm 6 m/s 723 mmHg 82%
    23:00 +23°C° 0 mm 6 m/s 723 mmHg 84%

    Après-demain, 21 Juin, Vendredi

    Heure Température Précipitation Vent Pression Humidité
    00:00 +23°C° 0 mm 6 m/s 723 mmHg 86%
    01:00 +22°C° 0 mm 6 m/s 722 mmHg 88%
    02:00 +22°C° 0 mm 6 m/s 722 mmHg 89%
    03:00 +22°C° 0 mm 5 m/s 722 mmHg 90%
    04:00 +22°C° 0 mm 5 m/s 722 mmHg 91%
    05:00 +22°C° 0 mm 6 m/s 723 mmHg 91%
    06:00 +22°C° 0 mm 6 m/s 723 mmHg 91%
    07:00 +23°C° 0 mm 6 m/s 723 mmHg 85%
    08:00 +24°C° 0 mm 7 m/s 724 mmHg 78%
    09:00 +27°C° 0 mm 8 m/s 724 mmHg 72%
    10:00 +27°C° 0.1 mm 8 m/s 724 mmHg 69%
    11:00 +28°C° 0.1 mm 8 m/s 723 mmHg 66%
    12:00 +28°C° 0.1 mm 8 m/s 723 mmHg 64%
    13:00 +29°C° 0.1 mm 8 m/s 722 mmHg 61%
    14:00 +30°C° 0.1 mm 7 m/s 722 mmHg 59%
    15:00 +30°C° 0.1 mm 7 m/s 721 mmHg 56%
    16:00 +29°C° 0.1 mm 7 m/s 721 mmHg 60%
    17:00 +29°C° 0.1 mm 6 m/s 721 mmHg 64%
    18:00 +28°C° 0.1 mm 6 m/s 721 mmHg 67%
    19:00 +27°C° 0.1 mm 6 m/s 721 mmHg 71%
    20:00 +26°C° 0.1 mm 6 m/s 722 mmHg 75%
    21:00 +24°C° 0.1 mm 7 m/s 722 mmHg 78%
    22:00 +23°C° 0 mm 6 m/s 722 mmHg 81%
    23:00 +23°C° 0 mm 6 m/s 722 mmHg 84%

    22 Juin, Samedi

    Heure Température Précipitation Vent Pression Humidité
    00:00 +22°C° 0 mm 5 m/s 722 mmHg 86%
    01:00 +22°C° 0 mm 6 m/s 722 mmHg 87%
    02:00 +22°C° 0 mm 6 m/s 722 mmHg 87%
    03:00 +22°C° 0 mm 7 m/s 721 mmHg 87%
    04:00 +22°C° 0 mm 5 m/s 722 mmHg 89%
    05:00 +22°C° 0 mm 5 m/s 722 mmHg 89%
    06:00 +22°C° 0 mm 5 m/s 722 mmHg 88%
    07:00 +23°C° 0 mm 6 m/s 723 mmHg 83%
    08:00 +24°C° 0 mm 6 m/s 723 mmHg 78%
    09:00 +26°C° 0 mm 7 m/s 724 mmHg 73%
    10:00 +27°C° 0 mm 7 m/s 723 mmHg 69%
    11:00 +28°C° 0 mm 7 m/s 723 mmHg 65%
    12:00 +28°C° 0 mm 7 m/s 722 mmHg 62%
    13:00 +29°C° 0 mm 7 m/s 721 mmHg 60%
    14:00 +29°C° 0 mm 7 m/s 721 mmHg 58%
    15:00 +30°C° 0 mm 6 m/s 720 mmHg 56%
    16:00 +29°C° 0 mm 6 m/s 720 mmHg 58%
    17:00 +29°C° 0 mm 5 m/s 720 mmHg 60%
    18:00 +28°C° 0 mm 4 m/s 720 mmHg 63%
    19:00 +27°C° 0.1 mm 4 m/s 721 mmHg 67%
    20:00 +26°C° 0.1 mm 4 m/s 721 mmHg 71%
    21:00 +26°C° 0.1 mm 5 m/s 722 mmHg 75%
    22:00 +25°C° 0 mm 4 m/s 721 mmHg 77%
    23:00 +23°C° 0 mm 4 m/s 721 mmHg 79%

    23 Juin, Dimanche

    Heure Température Précipitation Vent Pression Humidité
    00:00 +22°C° 0 mm 4 m/s 721 mmHg 81%
    01:00 +22°C° 0 mm 4 m/s 721 mmHg 84%
    02:00 +22°C° 0 mm 4 m/s 721 mmHg 87%
    03:00 +21°C° 0 mm 4 m/s 720 mmHg 90%
    04:00 +21°C° 0 mm 4 m/s 721 mmHg 92%
    05:00 +21°C° 0 mm 4 m/s 721 mmHg 94%
    06:00 +21°C° 0 mm 3 m/s 721 mmHg 95%
    07:00 +22°C° 0 mm 4 m/s 722 mmHg 87%
    08:00 +25°C° 0 mm 5 m/s 722 mmHg 78%
    09:00 +27°C° 0 mm 6 m/s 722 mmHg 69%
    10:00 +28°C° 0 mm 6 m/s 722 mmHg 62%
    11:00 +30°C° 0 mm 7 m/s 722 mmHg 55%
    12:00 +32°C° 0 mm 7 m/s 721 mmHg 48%
    13:00 +32°C° 0 mm 7 m/s 721 mmHg 48%
    14:00 +33°C° 0 mm 7 m/s 720 mmHg 48%
    15:00 +33°C° 0 mm 7 m/s 719 mmHg 48%
    16:00 +32°C° 0 mm 6 m/s 719 mmHg 52%
    17:00 +30°C° 0 mm 5 m/s 720 mmHg 55%
    18:00 +29°C° 0 mm 4 m/s 720 mmHg 59%
    19:00 +28°C° 0 mm 5 m/s 720 mmHg 65%
    20:00 +27°C° 0 mm 5 m/s 721 mmHg 70%
    21:00 +26°C° 0 mm 5 m/s 721 mmHg 76%
    22:00 +25°C° 0 mm 5 m/s 721 mmHg 78%
    23:00 +25°C° 0 mm 5 m/s 721 mmHg 80%

    24 Juin, Lundi

    Heure Température Précipitation Vent Pression Humidité
    00:00 +23°C° 0 mm 5 m/s 721 mmHg 83%
    01:00 +23°C° 0 mm 5 m/s 721 mmHg 85%
    02:00 +23°C° 0 mm 5 m/s 721 mmHg 88%
    03:00 +22°C° 0 mm 5 m/s 721 mmHg 90%
    04:00 +22°C° 0 mm 5 m/s 721 mmHg 89%
    05:00 +23°C° 0 mm 6 m/s 721 mmHg 87%
    06:00 +23°C° 0 mm 6 m/s 722 mmHg 85%
    07:00 +24°C° 0 mm 6 m/s 722 mmHg 80%
    08:00 +26°C° 0 mm 7 m/s 722 mmHg 76%
    09:00 +27°C° 0 mm 7 m/s 723 mmHg 71%
    10:00 +28°C° 0 mm 7 m/s 722 mmHg 63%
    11:00 +30°C° 0 mm 7 m/s 722 mmHg 56%
    12:00 +32°C° 0 mm 7 m/s 722 mmHg 49%
    13:00 +32°C° 0 mm 7 m/s 721 mmHg 50%
    14:00 +32°C° 0 mm 7 m/s 720 mmHg 51%
    15:00 +32°C° 0 mm 7 m/s 720 mmHg 53%
    16:00 +30°C° 0.3 mm 6 m/s 720 mmHg 56%
    17:00 +30°C° 0.3 mm 5 m/s 720 mmHg 59%
    18:00 +29°C° 0.3 mm 4 m/s 720 mmHg 63%
    19:00 +28°C° 0.2 mm 5 m/s 720 mmHg 64%
    20:00 +28°C° 0.2 mm 5 m/s 721 mmHg 65%
    21:00 +27°C° 0.2 mm 6 m/s 721 mmHg 66%
    22:00 +26°C° 0 mm 5 m/s 721 mmHg 69%
    23:00 +26°C° 0 mm 5 m/s 721 mmHg 72%
    Voir plus